Asheville, NC

6:05 AM EDT on July 24, 2017 (GMT -0400)
Asheville Regional

Weather History for KAVL - May, 2007

Change the Weather History Date:

Wednesday, May 23, 2007

  Actual Average Record
Temperature  
Mean Temperature 65 °F 65 °F  
Max Temperature 78 °F 76 °F 90 °F (1953)
Min Temperature 52 °F 53 °F 35 °F (2002)
Degree Days  
Heating Degree Days 0 2  
Month to date heating degree days 81 95  
Since 1 July heating degree days 4022 4167  
Cooling Degree Days 0 2  
Month to date cooling degree days 21 30  
Year to date cooling degree days 22 38  
Growing Degree Days 14 (Base 50)    
Moisture  
Dew Point 53 °F    
Average Humidity 68    
Maximum Humidity 90    
Minimum Humidity 46    
Precipitation  
Precipitation T in 0.12 in 2.29 in (1913)
Month to date precipitation 0.96 2.67  
Year to date precipitation 11.82 17.26  
Snow  
Snow 0.00 in 0.00 in 0.00 in ()
Month to date snowfall 0.0 0.0  
Since 1 July snowfall 3.2 9.9  
Snow Depth -    
Sea Level Pressure  
Sea Level Pressure 30.32 in    
Wind  
Wind Speed 4 mph (SE)    
Max Wind Speed 16 mph    
Max Gust Speed 22 mph    
Visibility 7 miles    
Events      
T = Trace of Precipitation, MM = Missing Value Source: NWS Daily Summary

Daily Weather History Graph

Daily Weather History Graph

Search for Another Location

Airport or City:

Trip Planner

Search our weather history database for the weather conditions in past years. The results will help you decide how hot, cold, wet, or windy it might be!

Date:

Astronomy

May. 23, 2007 Rise Set
Actual Time 6:20 AM EDT 8:33 PM EDT
Civil Twilight 5:51 AM EDT 9:02 PM EDT
Nautical Twilight 5:16 AM EDT 9:37 PM EDT
Astronomical Twilight 4:38 AM EDT 10:16 PM EDT
Moon 1:02 PM EDT (5/23) 2:01 AM EDT (5/23)
Length of Visible Light 15h 11m
Length of Day
14h 13m
Waxing Crescent, 48% of the Moon is Illuminated
May 23
Waxing Crescent
May 23
First Quarter
May 31
Full
Jun 8
Last Quarter
Jun 14
New

Hourly Weather History & Observations

Time (EDT) Temp. Dew Point Humidity Pressure Visibility Wind Dir Wind Speed Gust Speed Precip Events Conditions
12:54 AM 59.0 °F 51.1 °F 75% 30.25 in 8.0 mi Calm Calm - N/A   Overcast
1:54 AM 59.0 °F 50.0 °F 72% 30.26 in 8.0 mi Calm Calm - N/A   Scattered Clouds
2:54 AM 55.9 °F 50.0 °F 80% 30.27 in 7.0 mi Calm Calm - N/A   Partly Cloudy
3:54 AM 55.0 °F 48.9 °F 80% 30.26 in 6.0 mi Calm Calm - N/A   Haze
4:54 AM 53.1 °F 48.9 °F 86% 30.27 in 6.0 mi Calm Calm - N/A   Clear
5:54 AM 52.0 °F 48.9 °F 89% 30.29 in 6.0 mi Calm Calm - N/A   Clear
6:42 AM 51.8 °F 48.2 °F 88% - 2.5 mi Calm Calm - N/A   Clear
6:54 AM 52.0 °F 48.9 °F 89% - 4.0 mi SE 3.5 mph - N/A   Clear
7:54 AM 55.9 °F 50.0 °F 80% - 5.0 mi Calm Calm - N/A   Haze
8:54 AM 61.0 °F 52.0 °F 72% 30.35 in 6.0 mi Calm Calm - N/A   Haze
9:54 AM 66.9 °F 55.0 °F 66% 30.36 in 7.0 mi Calm Calm - N/A   Clear
10:54 AM 71.1 °F 54.0 °F 55% 30.35 in 8.0 mi Calm Calm - N/A   Clear
11:54 AM 73.9 °F 55.0 °F 52% 30.35 in 10.0 mi South 9.2 mph - N/A   Partly Cloudy
12:54 PM 73.9 °F 57.0 °F 55% 30.35 in 7.0 mi SSE 13.8 mph 21.9 mph N/A   Partly Cloudy
1:54 PM 73.9 °F 55.9 °F 53% 30.33 in 6.0 mi ESE 10.4 mph - N/A   Haze
2:54 PM 77.0 °F 55.9 °F 48% 30.32 in 7.0 mi South 11.5 mph 17.3 mph N/A   Clear
3:54 PM 75.9 °F 55.9 °F 50% 30.32 in 6.0 mi South 12.7 mph - N/A   Haze
4:54 PM 73.9 °F 55.0 °F 52% 30.32 in 8.0 mi ESE 9.2 mph - N/A   Haze
5:54 PM 75.0 °F 54.0 °F 48% 30.31 in 8.0 mi SE 8.1 mph - N/A   Haze
6:54 PM 71.1 °F 57.0 °F 61% 30.32 in 6.0 mi ESE 10.4 mph - 0.00 in   Haze
7:54 PM 70.0 °F 57.0 °F 63% 30.33 in 7.0 mi Variable 5.8 mph - N/A   Haze
8:54 PM 68.0 °F 57.0 °F 68% 30.33 in 8.0 mi Calm Calm - N/A   Clear
9:54 PM 66.0 °F 57.0 °F 73% 30.35 in 7.0 mi Variable 3.5 mph - N/A   Partly Cloudy
10:54 PM 63.0 °F 57.0 °F 81% 30.37 in 6.0 mi Calm Calm - N/A   Haze
11:54 PM 61.0 °F 57.0 °F 87% 30.37 in 5.0 mi Calm Calm - 0.00 in   Mostly Cloudy